| time (UTC) | temp F | wind direction | speed MPH | gust MPH | rain 1hr in | rain 24hr in | rain mn in | humidity % | barometer mb |
| 20260509213009 | 54 | 202 | 0.0 | 0.0 | 0.00 | 0.03 | 0.00 | 91 | 1029.2 |
| 20260509212009 | 54 | 202 | 0.0 | 1.0 | 0.00 | 0.03 | 0.00 | 91 | 1029.1 |
| 20260509211009 | 54 | 202 | 0.0 | 1.0 | 0.00 | 0.03 | 0.00 | 91 | 1028.9 |
| 20260509210009 | 54 | 202 | 0.0 | 2.0 | 0.00 | 0.03 | 0.00 | 91 | 1028.8 |
| 20260509205009 | 54 | 202 | 1.0 | 2.0 | 0.00 | 0.03 | 0.00 | 91 | 1028.8 |
| 20260509204009 | 54 | 202 | 0.0 | 0.0 | 0.00 | 0.03 | 0.00 | 91 | 1028.7 |
| 20260509203009 | 54 | 202 | 0.0 | 2.0 | 0.00 | 0.04 | 0.00 | 91 | 1028.6 |
| 20260509202009 | 54 | 202 | 1.0 | 2.0 | 0.00 | 0.04 | 0.00 | 91 | 1028.5 |
| 20260509201009 | 54 | 202 | 1.0 | 2.0 | 0.00 | 0.04 | 0.00 | 91 | 1028.5 |
| 20260509200009 | 54 | 202 | 0.0 | 2.0 | 0.00 | 0.04 | 0.00 | 91 | 1028.4 |
| 20260509195009 | 54 | 202 | 1.0 | 2.0 | 0.00 | 0.04 | 0.00 | 91 | 1028.3 |
| 20260509194009 | 54 | 202 | 0.0 | 2.0 | 0.00 | 0.07 | 0.00 | 91 | 1028.1 |
| 20260509193009 | 54 | 202 | 1.0 | 3.0 | 0.00 | 0.07 | 0.00 | 91 | 1028.1 |
| 20260509192009 | 54 | 202 | 1.0 | 3.0 | 0.00 | 0.07 | 0.00 | 91 | 1028.0 |
| 20260509191009 | 54 | 202 | 0.0 | 1.0 | 0.00 | 0.07 | 0.00 | 91 | 1027.9 |
| 20260509190009 | 54 | 202 | 1.0 | 2.0 | 0.00 | 0.07 | 0.00 | 91 | 1027.8 |
| 20260509185009 | 54 | 202 | 0.0 | 2.0 | 0.00 | 0.09 | 0.00 | 91 | 1027.7 |
| 20260509184009 | 54 | 202 | 1.0 | 2.0 | 0.00 | 0.09 | 0.00 | 91 | 1027.7 |
| 20260509183009 | 55 | 202 | 0.0 | 2.0 | 0.00 | 0.09 | 0.00 | 91 | 1027.6 |
| 20260509182009 | 55 | 202 | 0.0 | 2.0 | 0.00 | 0.09 | 0.00 | 91 | 1027.5 |
| 20260509181010 | 55 | 202 | 1.0 | 3.0 | 0.00 | 0.09 | 0.00 | 91 | 1027.4 |
| 20260509180009 | 55 | 202 | 1.0 | 3.0 | 0.00 | 0.09 | 0.00 | 91 | 1027.3 |
| 20260509175008 | 55 | 202 | 1.0 | 3.0 | 0.00 | 0.09 | 0.00 | 91 | 1027.2 |
| 20260509174008 | 55 | 202 | 1.0 | 3.0 | 0.00 | 0.09 | 0.00 | 91 | 1027.3 |
| 20260509173009 | 55 | 202 | 2.0 | 3.0 | 0.00 | 0.09 | 0.00 | 91 | 1027.2 |
| 20260509172010 | 55 | 202 | 1.0 | 3.0 | 0.00 | 0.09 | 0.00 | 91 | 1027.3 |
| 20260509171009 | 55 | 202 | 0.0 | 3.0 | 0.00 | 0.09 | 0.00 | 91 | 1027.4 |
| 20260509170009 | 55 | 202 | 1.0 | 3.0 | 0.00 | 0.09 | 0.00 | 91 | 1027.4 |
| 20260509165008 | 55 | 202 | 2.0 | 5.0 | 0.00 | 0.09 | 0.00 | 91 | 1027.5 |
| 20260509164009 | 55 | 202 | 3.0 | 6.0 | 0.00 | 0.09 | 0.00 | 91 | 1027.4 |
| 20260509163008 | 55 | 202 | 1.0 | 3.0 | 0.00 | 0.09 | 0.00 | 91 | 1027.5 |
| 20260509162009 | 55 | 202 | 2.0 | 3.0 | 0.00 | 0.09 | 0.00 | 91 | 1027.5 |
| 20260509161009 | 55 | 202 | 1.0 | 5.0 | 0.00 | 0.09 | 0.00 | 91 | 1027.6 |
| 20260509160010 | 56 | 202 | 2.0 | 5.0 | 0.00 | 0.09 | 0.00 | 91 | 1027.6 |
| 20260509155009 | 56 | 202 | 2.0 | 6.0 | 0.00 | 0.09 | 0.00 | 91 | 1027.6 |
| 20260509154009 | 56 | 202 | 3.0 | 5.0 | 0.00 | 0.09 | 0.00 | 91 | 1027.6 |
| 20260509153009 | 56 | 202 | 3.0 | 6.0 | 0.00 | 0.09 | 0.00 | 91 | 1027.7 |
| 20260509152009 | 55 | 202 | 2.0 | 3.0 | 0.00 | 0.09 | 0.00 | 91 | 1027.7 |
| 20260509151009 | 55 | 202 | 2.0 | 5.0 | 0.00 | 0.09 | 0.00 | 91 | 1027.8 |
| 20260509150009 | 55 | 202 | 3.0 | 7.0 | 0.00 | 0.09 | 0.00 | 91 | 1027.8 |
| 20260509145009 | 55 | 202 | 3.0 | 5.0 | 0.00 | 0.09 | 0.00 | 91 | 1027.7 |
| 20260509144008 | 55 | 202 | 3.0 | 3.0 | 0.00 | 0.09 | 0.00 | 91 | 1027.6 |
| 20260509143009 | 55 | 202 | 2.0 | 5.0 | 0.00 | 0.09 | 0.00 | 91 | 1027.6 |
| 20260509142009 | 56 | 202 | 2.0 | 3.0 | 0.00 | 0.09 | 0.00 | 91 | 1027.6 |
| 20260509141008 | 56 | 202 | 2.0 | 5.0 | 0.00 | 0.09 | 0.00 | 91 | 1027.7 |
| 20260509140008 | 56 | 202 | 2.0 | 3.0 | 0.00 | 0.09 | 0.00 | 91 | 1027.7 |
| 20260509135009 | 56 | 202 | 1.0 | 3.0 | 0.00 | 0.09 | 0.09 | 91 | 1027.7 |
| 20260509134009 | 56 | 202 | 2.0 | 3.0 | 0.00 | 0.09 | 0.09 | 91 | 1027.7 |
| 20260509133009 | 56 | 202 | 1.0 | 3.0 | 0.00 | 0.09 | 0.09 | 91 | 1027.7 |
| 20260509132009 | 56 | 202 | 2.0 | 3.0 | 0.00 | 0.09 | 0.09 | 91 | 1027.8 |
| 20260509131009 | 56 | 202 | 2.0 | 3.0 | 0.00 | 0.09 | 0.09 | 91 | 1027.8 |
| 20260509130010 | 56 | 202 | 2.0 | 3.0 | 0.00 | 0.09 | 0.09 | 91 | 1027.8 |
| 20260509125009 | 56 | 202 | 0.0 | 3.0 | 0.01 | 0.09 | 0.09 | 91 | 1027.8 |
| 20260509124008 | 56 | 202 | 2.0 | 3.0 | 0.02 | 0.09 | 0.09 | 91 | 1027.9 |
| 20260509123009 | 56 | 202 | 2.0 | 3.0 | 0.02 | 0.09 | 0.09 | 91 | 1027.9 |
| 20260509122009 | 56 | 202 | 1.0 | 3.0 | 0.02 | 0.09 | 0.09 | 90 | 1027.9 |
| 20260509121009 | 56 | 202 | 1.0 | 3.0 | 0.02 | 0.09 | 0.09 | 90 | 1027.9 |
| 20260509120009 | 57 | 202 | 2.0 | 3.0 | 0.02 | 0.09 | 0.09 | 91 | 1027.8 |
| 20260509115009 | 57 | 202 | 2.0 | 7.0 | 0.01 | 0.08 | 0.08 | 91 | 1027.7 |
| 20260509114009 | 57 | 202 | 2.0 | 3.0 | 0.00 | 0.07 | 0.07 | 90 | 1027.7 |
| 20260509113008 | 57 | 202 | 1.0 | 3.0 | 0.00 | 0.07 | 0.07 | 90 | 1027.6 |
| 20260509112011 | 57 | 202 | 1.0 | 3.0 | 0.00 | 0.07 | 0.07 | 90 | 1027.6 |
| 20260509111009 | 57 | 202 | 2.0 | 3.0 | 0.00 | 0.07 | 0.07 | 90 | 1027.5 |
| 20260509110009 | 57 | 202 | 2.0 | 3.0 | 0.00 | 0.07 | 0.07 | 90 | 1027.5 |
| 20260509105009 | 57 | 202 | 3.0 | 5.0 | 0.00 | 0.07 | 0.07 | 90 | 1027.5 |
| 20260509104009 | 57 | 202 | 2.0 | 5.0 | 0.00 | 0.07 | 0.07 | 90 | 1027.4 |
| 20260509103009 | 57 | 202 | 2.0 | 7.0 | 0.00 | 0.07 | 0.07 | 89 | 1027.4 |
| 20260509102009 | 57 | 202 | 3.0 | 7.0 | 0.00 | 0.07 | 0.07 | 89 | 1027.4 |
| 20260509101009 | 57 | 200 | 3.0 | 7.0 | 0.00 | 0.07 | 0.07 | 89 | 1027.4 |
| 20260509100009 | 57 | 193 | 3.0 | 7.0 | 0.00 | 0.07 | 0.07 | 89 | 1027.3 |
| 20260509095009 | 57 | 192 | 1.0 | 3.0 | 0.00 | 0.07 | 0.07 | 89 | 1027.3 |
| 20260509094009 | 57 | 192 | 1.0 | 3.0 | 0.00 | 0.07 | 0.07 | 89 | 1027.3 |
| 20260509093009 | 57 | 192 | 2.0 | 5.0 | 0.00 | 0.07 | 0.07 | 89 | 1027.3 |
| 20260509092009 | 57 | 192 | 2.0 | 3.0 | 0.00 | 0.07 | 0.07 | 89 | 1027.2 |
| 20260509091009 | 57 | 192 | 2.0 | 3.0 | 0.00 | 0.07 | 0.07 | 89 | 1027.2 |
| 20260509090009 | 57 | 192 | 2.0 | 5.0 | 0.00 | 0.07 | 0.07 | 88 | 1027.2 |
| 20260509085009 | 57 | 192 | 3.0 | 7.0 | 0.00 | 0.07 | 0.07 | 88 | 1027.0 |
| 20260509084009 | 57 | 184 | 3.0 | 5.0 | 0.00 | 0.07 | 0.07 | 88 | 1026.9 |
| 20260509083009 | 57 | 184 | 2.0 | 5.0 | 0.00 | 0.07 | 0.07 | 88 | 1026.9 |
| 20260509082011 | 57 | 184 | 2.0 | 5.0 | 0.00 | 0.07 | 0.07 | 88 | 1026.7 |
| 20260509081009 | 57 | 184 | 2.0 | 3.0 | 0.00 | 0.07 | 0.07 | 88 | 1026.6 |
| 20260509080009 | 57 | 184 | 1.0 | 3.0 | 0.00 | 0.07 | 0.07 | 88 | 1026.4 |
| 20260509075009 | 57 | 184 | 1.0 | 5.0 | 0.00 | 0.07 | 0.07 | 88 | 1026.4 |
| 20260509074009 | 58 | 184 | 3.0 | 6.0 | 0.00 | 0.07 | 0.07 | 87 | 1026.2 |
| 20260509073009 | 58 | 183 | 2.0 | 5.0 | 0.00 | 0.07 | 0.07 | 87 | 1026.2 |
| 20260509072009 | 58 | 183 | 1.0 | 3.0 | 0.00 | 0.07 | 0.07 | 87 | 1026.0 |
| 20260509071009 | 58 | 183 | 1.0 | 3.0 | 0.00 | 0.07 | 0.07 | 87 | 1025.9 |
| 20260509070009 | 59 | 183 | 3.0 | 5.0 | 0.00 | 0.07 | 0.07 | 87 | 1025.9 |
| 20260509065010 | 59 | 183 | 2.0 | 6.0 | 0.00 | 0.07 | 0.07 | 87 | 1025.9 |
| 20260509064009 | 59 | 184 | 4.0 | 7.0 | 0.00 | 0.07 | 0.07 | 86 | 1025.9 |
| 20260509063009 | 60 | 186 | 4.0 | 8.0 | 0.00 | 0.07 | 0.07 | 86 | 1025.8 |
| 20260509062009 | 60 | 183 | 3.0 | 8.0 | 0.00 | 0.07 | 0.07 | 85 | 1025.8 |
| 20260509061009 | 61 | 186 | 6.0 | 9.0 | 0.00 | 0.07 | 0.07 | 84 | 1025.8 |
| 20260509060009 | 61 | 194 | 6.0 | 9.0 | 0.00 | 0.07 | 0.07 | 84 | 1025.8 |
| 20260509055009 | 61 | 194 | 3.0 | 7.0 | 0.00 | 0.07 | 0.07 | 83 | 1025.8 |
| 20260509054009 | 61 | 197 | 3.0 | 7.0 | 0.00 | 0.07 | 0.07 | 83 | 1025.7 |
| 20260509053009 | 61 | 201 | 4.0 | 7.0 | 0.00 | 0.07 | 0.07 | 82 | 1025.7 |
| 20260509052009 | 62 | 206 | 5.0 | 7.0 | 0.00 | 0.07 | 0.07 | 82 | 1025.7 |
| 20260509051009 | 62 | 211 | 5.0 | 8.0 | 0.00 | 0.07 | 0.07 | 81 | 1025.7 |
| 20260509050009 | 63 | 212 | 4.0 | 8.0 | 0.00 | 0.07 | 0.07 | 81 | 1025.6 |
| 20260509045009 | 63 | 217 | 2.0 | 6.0 | 0.00 | 0.07 | 0.07 | 81 | 1025.6 |
| 20260509044009 | 63 | 217 | 2.0 | 7.0 | 0.00 | 0.07 | 0.07 | 81 | 1025.6 |
| 20260509043009 | 63 | 221 | 3.0 | 6.0 | 0.00 | 0.07 | 0.07 | 80 | 1025.6 |
| 20260509042009 | 63 | 221 | 3.0 | 7.0 | 0.00 | 0.07 | 0.07 | 78 | 1025.7 |
| 20260509041009 | 63 | 232 | 3.0 | 8.0 | 0.00 | 0.07 | 0.07 | 78 | 1025.6 |
| 20260509040008 | 63 | 238 | 2.0 | 6.0 | 0.00 | 0.07 | 0.07 | 79 | 1025.6 |
| 20260509035009 | 63 | 244 | 2.0 | 8.0 | 0.00 | 0.07 | 0.07 | 79 | 1025.7 |
| 20260509034009 | 63 | 241 | 4.0 | 8.0 | 0.00 | 0.07 | 0.07 | 79 | 1025.7 |
| 20260509033009 | 63 | 238 | 2.0 | 6.0 | 0.00 | 0.07 | 0.07 | 80 | 1025.8 |
| 20260509032009 | 63 | 238 | 3.0 | 8.0 | 0.00 | 0.07 | 0.07 | 79 | 1025.9 |
| 20260509031009 | 63 | 252 | 3.0 | 7.0 | 0.00 | 0.07 | 0.07 | 79 | 1025.8 |
| 20260509030009 | 63 | 254 | 3.0 | 7.0 | 0.00 | 0.07 | 0.07 | 80 | 1026.0 |
| 20260509025009 | 62 | 252 | 3.0 | 8.0 | 0.00 | 0.07 | 0.07 | 81 | 1026.1 |
| 20260509024009 | 63 | 252 | 3.0 | 9.0 | 0.00 | 0.07 | 0.07 | 82 | 1026.2 |
| 20260509023009 | 62 | 242 | 2.0 | 5.0 | 0.00 | 0.07 | 0.07 | 83 | 1026.3 |
| 20260509022009 | 62 | 237 | 3.0 | 8.0 | 0.00 | 0.07 | 0.07 | 83 | 1026.5 |
| 20260509021009 | 62 | 239 | 5.0 | 9.0 | 0.00 | 0.07 | 0.07 | 81 | 1026.6 |
| 20260509020010 | 62 | 241 | 5.0 | 9.0 | 0.00 | 0.07 | 0.07 | 81 | 1026.7 |
| 20260509015009 | 63 | 242 | 5.0 | 8.0 | 0.00 | 0.07 | 0.07 | 83 | 1026.7 |
| 20260509014009 | 62 | 237 | 4.0 | 7.0 | 0.00 | 0.07 | 0.07 | 87 | 1026.8 |
| 20260509013009 | 61 | 238 | 3.0 | 8.0 | 0.00 | 0.07 | 0.07 | 88 | 1026.9 |
| 20260509012009 | 61 | 249 | 4.0 | 7.0 | 0.00 | 0.07 | 0.07 | 90 | 1026.9 |
| 20260509011009 | 59 | 269 | 2.0 | 7.0 | 0.00 | 0.07 | 0.07 | 90 | 1027.0 |
| 20260509010009 | 59 | 261 | 3.0 | 7.0 | 0.00 | 0.07 | 0.07 | 90 | 1027.0 |
| 20260509005009 | 58 | 259 | 4.0 | 9.0 | 0.00 | 0.07 | 0.07 | 90 | 1027.1 |
| 20260509004009 | 59 | 266 | 4.0 | 10.0 | 0.00 | 0.07 | 0.07 | 91 | 1026.9 |
| 20260509003009 | 59 | 283 | 2.0 | 6.0 | 0.00 | 0.07 | 0.07 | 91 | 1026.9 |
| 20260509002009 | 58 | 284 | 2.0 | 6.0 | 0.00 | 0.07 | 0.07 | 91 | 1026.9 |
| 20260509001009 | 57 | 287 | 1.0 | 8.0 | 0.00 | 0.07 | 0.07 | 91 | 1026.8 |
| 20260509000009 | 57 | 281 | 2.0 | 3.0 | 0.00 | 0.07 | 0.07 | 91 | 1026.7 |
| 20260508235009 | 57 | 281 | 3.0 | 7.0 | 0.00 | 0.07 | 0.07 | 91 | 1026.7 |
| 20260508234009 | 57 | 282 | 2.0 | 7.0 | 0.01 | 0.07 | 0.07 | 91 | 1026.8 |
| 20260508233009 | 57 | 277 | 2.0 | 6.0 | 0.01 | 0.07 | 0.07 | 91 | 1026.8 |
| 20260508232010 | 56 | 273 | 3.0 | 7.0 | 0.01 | 0.07 | 0.07 | 91 | 1026.8 |
| 20260508231009 | 56 | 269 | 2.0 | 6.0 | 0.01 | 0.07 | 0.07 | 91 | 1026.8 |
| 20260508230009 | 55 | 269 | 2.0 | 3.0 | 0.01 | 0.07 | 0.07 | 91 | 1026.8 |
| 20260508225009 | 55 | 267 | 2.0 | 3.0 | 0.01 | 0.08 | 0.07 | 91 | 1026.7 |
| 20260508224009 | 54 | 267 | 2.0 | 3.0 | 0.00 | 0.07 | 0.06 | 91 | 1026.5 |
| 20260508223009 | 54 | 267 | 3.0 | 6.0 | 0.00 | 0.07 | 0.06 | 91 | 1026.4 |
| 20260508222009 | 54 | 266 | 2.0 | 6.0 | 0.00 | 0.07 | 0.06 | 91 | 1026.3 |
| 20260508221010 | 54 | 266 | 1.0 | 3.0 | 0.00 | 0.07 | 0.06 | 91 | 1026.2 |
| 20260508220009 | 54 | 266 | 3.0 | 3.0 | 0.00 | 0.07 | 0.06 | 91 | 1026.2 |
| 20260508215009 | 54 | 266 | 1.0 | 3.0 | 0.00 | 0.07 | 0.06 | 91 | 1026.1 |
| 20260508214009 | 54 | 264 | 2.0 | 3.0 | 0.00 | 0.07 | 0.06 | 91 | 1026.0 |